Impacts METAR Board INFO
IDs:

KSEA - Seattle-Tacoma Intl, WA, US

Updated at: 1749 UTC 25 Feb 2018
Potential Impact None Slight Moderate High
Time25/05Z 25/06Z 25/07Z 25/08Z 25/09Z 25/10Z 25/11Z 25/12Z 25/13Z 25/14Z 25/15Z 25/16Z 25/17Z
VIS10 10 10 8 10 7 8 9 7 10 10 10 10
CIG60 50 90 18 15 19 12 12 13 11 9 14 14
CoverOVCOVCOVCOVCOVCOVCOVCOVCOVCOVCOVCOVCOVC
FltCatVFRVFRVFRMVFRMVFRMVFRMVFRMVFRMVFRMVFRIFRMVFRMVFR
WX-------RA---RA-RA---RA--------
WDir200200190180170180190200200190180220210
WSpd13 14 16 10 16 15 17 15 17 19 17 19 21
WGst25 22 23 -- -- 22 25 -- 25 27 22 26 28
Raw hourly METARs
KSEA 250453Z 20013G25KT 10SM BKN060 OVC085 06/00 A3012 RMK AO2 PK WND 20026/0405 SLP208 T00560000
KSEA 250553Z 20014G22KT 10SM BKN050 OVC100 06/00 A3010 RMK AO2 PK WND 21026/0513 SLP203 T00560000 10067 20050 58010
KSEA 250653Z 19016G23KT 10SM SCT070 OVC090 05/01 A3009 RMK AO2 SLP200 T00500006
KSEA 250753Z 18010KT 8SM -RA BKN018 OVC023 04/01 A3007 RMK AO2 RAB41 SLP192 P0000 T00440011 400720022
KSEA 250853Z 17016KT 10SM BKN015 OVC023 04/02 A3003 RMK AO2 RAE0758B14E42 PRESFR SLP178 P0002 60002 T00440017 58024
KSEA 250953Z 18015G22KT 7SM -RA BKN019 OVC028 04/02 A2998 RMK AO2 RAB12 SLP162 P0001 T00440022
KSEA 251100Z 19017G25KT 8SM -RA BKN012 OVC021 04/03 A2992 RMK AO2 P0001 T00440033
KSEA 251153Z 20015KT 9SM BKN012 OVC021 05/04 A2990 RMK AO2 PK WND 19029/1104 RAE23 SLP133 P0001 60009 70009 T00500044 10056 20039 56043
KSEA 251253Z 20017G25KT 7SM -RA BKN013 OVC021 05/04 A2986 RMK AO2 RAB1154 SLP121 P0005 T00500044
KSEA 251353Z 19019G27KT 10SM FEW007 BKN011 OVC016 05/04 A2984 RMK AO2 PK WND 19030/1333 RAE47 SLP113 P0006 T00500044
KSEA 251453Z 18017G22KT 10SM BKN009 OVC014 04/04 A2983 RMK AO2 PK WND 20026/1359 SLP110 60011 T00440044 56024
KSEA 251553Z 22019G26KT 10SM BKN014 OVC019 06/05 A2982 RMK AO2 PK WND 23026/1545 RAB30E44 SLP105 P0000 T00560050
KSEA 251653Z 21021G28KT 10SM BKN014 OVC020 05/05 A2980 RMK AO2 PK WND 20030/1602 SLP098 T00500050